Location: Star Hoppers Observatory
(42.7905°N, 83.6127°W)
Time: 07:05:42
(UTC-04:00)

Daily predictions for brighter satellites

Satellite Brightness Start Highest point End
(mag) Time Altitude Azimuth Time Altitude Azimuth Time Altitude Azimuth
USA 40 PKM 4.3 21:31:59 10° SW 21:35:22 76° SE 21:39:55 10° NE
Nadezhda 1 Rocket 4.3 21:31:13 10° SSE 21:37:18 50° E 21:43:27 10° NNE
COSMOS 2406 3.3 21:36:39 10° SSW 21:42:23 87° ESE 21:48:08 10° NNE
Cosmos 2082 Rocket 3.8 21:42:36 10° SE 21:45:30 14° E 21:48:23 10° ENE
Cosmos 1743 3.2 21:45:11 10° NNW 21:49:03 65° W 21:52:55 10° S
Meteor 1-13 Rocket 4.5 21:43:37 10° S 21:49:34 85° W 21:55:29 10° N
NOSS 2-2 (C) 4.5 21:45:59 10° SW 21:49:57 53° NW 21:54:34 10° NNE
Cosmos 2154 Rocket 4.4 21:45:13 10° N 21:51:21 48° ENE 21:57:27 10° SSE
CZ-4B DEB 2.8 21:49:34 10° S 21:52:32 73° W 21:55:32 10° NNW
Cosmos 2112 Rocket 4.0 21:49:26 10° SSW 21:54:40 84° ESE 21:59:53 10° NNE
Cosmos 1238 Rocket 4.2 21:49:58 10° S 21:56:39 67° E 22:03:02 10° NNE
Cosmos 1346 3.8 21:55:31 10° SSW 21:58:13 49° WNW 22:00:55 10° N
ISS -3.8 21:55:01 10° WSW 21:58:19 87° NW 22:01:38 10° NE
Aureole 3 Rocket 3.6 21:52:21 10° S 21:58:36 84° W 22:03:02 10° N
ASTEX 1 3.4 21:56:05 10° SSE 22:00:56 70° E 22:05:49 10° N
Cosmos 1624 Rocket 4.4 21:55:53 10° N 22:01:02 51° ENE 22:05:37 13° SE
OAO 2 Rocket 4.1 21:56:56 10° WSW 22:01:21 33° S 22:05:07 13° ESE
H-2A R/B 3.3 21:59:49 11° ESE 22:03:31 25° ENE 22:07:34 10° NNE
Cosmos 1697 Rocket 4.3 22:00:26 10° N 22:04:43 22° NE 22:08:58 10° E
Helios 1A 4.0 22:00:59 10° S 22:05:01 44° W 22:09:04 10° NNW
Cosmos 2228 4.5 22:03:32 10° NNE 22:06:57 22° ENE 22:09:27 14° ESE
SL-27 R/B 2.8 22:03:46 10° SSW 22:07:24 71° WNW 22:11:04 10° NNE
Cosmos 921 Rocket 4.0 22:05:22 10° N 22:09:30 35° ENE 22:12:33 16° SE
Cosmos 1939 Rocket 3.8 22:05:48 10° S 22:09:30 45° W 22:13:14 10° NNW
YAOGAN 6 2.7 22:06:50 10° S 22:10:18 71° W 22:13:49 10° NNW
Cosmos 1666 3.4 22:08:00 10° NNW 22:11:40 50° W 22:15:17 10° S
Meteor 2-9 Rocket 4.3 22:07:27 10° NNW 22:12:57 80° W 22:18:35 10° S
SL-08 RB Rocket 4.5 22:12:25 16° SE 22:15:32 36° ENE 22:19:39 10° N
Cosmos 1680 Rocket 4.4 22:12:12 10° SW 22:17:18 53° WNW 22:22:25 10° NNE
Okean 1-7 Rocket 3.7 22:13:23 10° S 22:17:51 85° W 22:22:23 10° N
Cosmos 1892 Rocket 4.1 22:15:22 14° SSE 22:18:51 41° E 22:23:01 10° NNE
Intercosmos 24 3.6 22:16:10 10° N 22:20:03 85° E 22:22:54 15° S
Cosmos 2056 Rocket 3.5 22:15:13 10° NNW 22:20:23 70° ENE 22:24:17 17° SSE
Cosmos 1437 Rocket 2.7 22:18:37 10° N 22:22:28 73° ENE 22:25:17 18° SSE
Cosmos 1833 Rocket 3.6 22:19:02 15° SSE 22:22:30 27° ESE 22:27:10 10° NE
Cosmos 2341 Rocket 4.1 22:17:56 10° N 22:24:14 63° E 22:29:27 16° SSE
Helios 1B rocket 4.3 22:23:11 10° N 22:26:53 33° WNW 22:30:35 10° SW
MetOp-A 4.1 22:23:24 14° SSE 22:28:05 85° ENE 22:33:28 10° NNW
Meteor 2-4 Rocket 4.4 22:24:29 10° SSW 22:30:03 58° WNW 22:35:49 10° N
Cosmos 1606 Rocket 3.5 22:25:49 10° N 22:30:09 77° E 22:33:14 19° SSE
PSLV R/B 4.1 22:29:19 10° W 22:32:08 31° SSW 22:32:59 26° SSE
Cosmos 839 Rocket 4.4 22:27:26 10° NNW 22:33:59 77° ENE 22:39:48 19° SE
Cosmos 405 4.3 22:33:59 10° NNW 22:37:17 36° W 22:40:27 11° SSW
Cosmos 1726 Rocket 3.4 22:35:33 10° N 22:39:53 82° E 22:42:37 22° SSE
Cosmos 1025 Rocket 3.8 22:37:59 10° SSW 22:42:07 50° WNW 22:46:17 10° N
USA 245 2.0 22:42:20 49° SSE 22:42:53 80° ENE 22:45:12 10° N
Cosmos 1515 3.6 22:40:58 18° S 22:43:43 84° E 22:47:33 10° N
COSMOS 2487 2.5 22:43:44 25° S 22:45:33 57° ESE 22:49:04 10° NNE
NOSS 8 (F) 4.3 22:45:33 10° SSW 22:49:03 79° SE 22:52:41 10° NE
CZ-3A R/B -0.1 22:45:49 10° SW 22:48:50 61° SSW 22:48:50 61° SSW
Iridium 43 4.0 22:48:13 10° N 22:50:03 43° NE 22:50:03 43° NE
Cosmos 1452 Rocket 3.8 22:47:10 10° NNW 22:52:22 56° ENE 22:55:04 27° SE
Cosmos 1980 Rocket 3.4 22:48:14 10° N 22:53:11 30° NE 22:56:23 18° ESE
Cosmos 2058 Rocket 3.0 22:50:03 10° N 22:54:30 86° E 22:56:51 28° S
Landsat 7 4.1 22:52:27 28° SE 22:54:43 52° ENE 22:59:21 10° N
SPOT 1/Viking Rocket 3.5 22:51:40 25° SSE 22:54:46 80° ENE 22:59:57 10° NNW
YAOGAN 11 4.4 22:52:10 21° S 22:54:56 61° WSW 22:59:15 10° NNW
Cosmos 2181 Rocket 4.0 22:49:25 12° S 22:55:24 86° E 23:01:43 10° N
Tiangong 2 1.0 22:56:47 10° W 22:59:58 89° N 23:00:58 40° E
ARGOS 3.4 22:58:32 20° S 23:02:19 64° WSW 23:07:44 10° NNW
Cosmos 2322 Rocket 4.4 22:59:48 10° N 23:03:08 16° NE 23:06:28 10° E
Lacrosse 5 rocket 4.2 23:00:45 10° NNW 23:03:43 17° NNE 23:06:42 10° NE
Nimbus 7 Rocket 4.4 22:58:17 10° NNE 23:04:23 86° ESE 23:09:45 14° SSW
ERS-1 Rocket 4.4 23:01:33 10° SSW 23:05:59 31° W 23:10:27 10° NNW
USA 267 4.5 23:02:01 10° ENE 23:05:41 20° ESE 23:05:41 20° ESE
Terra 2.2 23:07:56 33° SE 23:09:45 52° ENE 23:14:23 10° N
NOSS 8 (H) 4.3 23:08:24 22° SSW 23:10:25 87° SE 23:14:01 10° NE
SPOT 5 3.4 23:09:28 22° SSW 23:11:55 46° W 23:16:09 10° NNW
H-2A R/B 2.4 23:15:12 38° SE 23:16:40 58° ENE 23:21:07 10° N
Cosmos 1812 Rocket 4.1 23:13:09 10° N 23:17:29 45° ENE 23:18:32 38° ESE
IGS 5A 3.6 23:18:14 44° SE 23:19:16 58° ENE 23:23:22 10° N
Meteor 2-21 4.3 23:15:54 10° N 23:21:59 81° E 23:24:52 33° SSE
PSLV R/B 4.2 23:24:25 33° NE 23:24:25 33° NE 23:26:29 10° N
Meteor 2-21 Rocket 4.4 23:19:58 10° N 23:26:03 71° E 23:28:37 36° SSE
Cosmos 1626 Rocket 3.4 23:26:20 46° S 23:27:35 82° E 23:31:56 10° N
Spot 4 4.5 23:26:55 34° ESE 23:28:15 42° ENE 23:32:47 10° N
Cosmos 2278 4.4 23:23:05 10° NW 23:28:31 47° WSW 23:31:16 27° SSW
Cosmos 2082 Rocket 2.2 23:23:35 12° SSW 23:28:48 81° WNW 23:34:30 10° NNE
ATLAS CENTAUR R/B 3.7 23:27:16 10° NNE 23:28:48 12° NE 23:30:21 10° ENE
Cosmos 1805 4.3 23:27:13 10° NNE 23:30:45 31° ENE 23:30:53 31° E
SL-19 R/B 4.1 23:26:06 10° NNE 23:31:26 65° ESE 23:33:15 40° S
Meteor 1-22 Rocket 4.0 23:27:19 10° N 23:32:39 87° E 23:34:40 40° SSE
SL-8 Rocket 4.3 23:28:41 10° NNW 23:34:51 61° W 23:38:28 26° SSW
ISS -1.2 23:32:29 10° WNW 23:35:10 22° NNW 23:37:52 10° NE
USA 229 DEB 4.0 23:28:12 10° NNW 23:35:18 65° NE 23:39:05 30° ESE
USA 229 4.0 23:28:18 10° NNW 23:35:24 64° NE 23:39:12 30° ESE
Cosmos 2366 rocket 4.0 23:34:32 10° N 23:40:41 74° W 23:43:33 33° S
Cosmos 1825 Rocket 4.3 23:41:26 35° E 23:41:26 35° E 23:45:17 10° NNE
H-2A R/B 2.9 23:40:27 26° SSW 23:42:42 41° W 23:47:28 10° NNW
Cosmos 2228 4.5 23:40:46 10° NNW 23:44:33 30° W 23:46:19 22° SW
Cosmos 158 Rocket 3.9 23:46:05 46° S 23:47:39 72° ESE 23:53:02 10° NNE
Meteor 1-4 Rocket 3.5 23:45:03 10° NNW 23:48:23 36° W 23:48:46 35° WSW
Cosmos 1697 Rocket 2.8 23:43:36 10° NNW 23:49:10 64° WSW 23:50:57 42° S
Cosmos 2360 4.3 23:44:19 10° NNW 23:50:02 67° ENE 23:51:48 43° SE
CZ-4C R/B 3.6 23:52:05 48° NE 23:52:05 48° NE 23:55:18 10° N
